Погода в Апраксино

Россия / Костромская область     57°50′34″N   40°59′04″E
В апреле 2022 года жителям России запретили посещать сайт meteo.paraplan.net по решению Генеральной прокуратуры. Аудитория сайта уменьшилась в 10 раз. Владельцы сайта не видят смысла в поддержке погодного сервера в таких условиях. Сайт будет закрыт в октябре.
темп.,
°C
ветер,
м/с
пор.,
м/с
влажн.,
%
обл.,
%
осадки,
мм/ч
давл.,
гПа
погр.,
м
4 октября, вт
вт400:00+9ююв713823 0.0 1009738
03:00+8юв715860 0.0 1010577
06:00+8юв715865 0.0 1011522
09:00+11юв815765 0.0 1012725
12:00+14ююв914625 0.0 10121243
15:00+15ююв8136210 0.0 10121450
18:00+11ююв61388100 1.8 1013719
21:00+11ююв51188100 4.1 1013495
5 октября, ср
ср500:00+11юв61291100 1.1 1012682
03:00+10ююв51193100 1.7 1011524
06:00+9ю4987100 1.0 1011589
09:00+9ю268698 1.5 1012441
12:00+10ю4676100 0.3 1012977
15:00+9ююз3578100 0.5 10131001
18:00+8ю2487100 0.4 1013209
21:00+7з2393100 1.0 1013219
6 октября, чт
чт600:00+7з3593100 0.7 1013283
03:00+7сз369199 1.4 1014335
06:00+6зсз369294 0.0 1014238
09:00+7сз35827 0.0 1015357
12:00+10зсз44665 0.0 1015877
15:00+10зюз446022 0.0 10151134
18:00+7юз34795 0.0 101653
21:00+5ююз498761 0.0 1015202
7 октября, пт
пт700:00+8ююз5128298 0.0 1012412
03:00+8юз61294100 0.0 1011599
06:00+10з51294100 1.5 1011598
09:00+10зсз7118267 1.7 10131071
12:00+10з71281100 0.1 1014895
15:00+10з71378100 0.1 10151036
18:00+10з6138120 0.0 1017663
21:00+9з614853 0.0 1018600
8 октября, сб
сб800:00+7з412920 0.0 1020379
03:00+6зюз49965 0.0 1021234
06:00+5юз38966 0.0 1021191
09:00+8юз5108753 0.0 1021366
12:00+12юз697585 0.0 1020663
15:00+13юз586915 0.0 1019904
18:00+9ююз41083100 0.0 1018204
21:00+10ююз61482100 0.0 1017466